When you browse on this site, cookies collect data to enhance your experience and personalize the content and advertising you see.
Visit our Privacy Policy to learn more. By continuing to use the site, you agree to this use of cookies and data.
  • In Deutschland
  • Länderverzeichnis
  • Für 7 Tage
  • Wassertemperatur
  • Satellitenkarten
  • Wetterkarte
  • Widgets
  • user-avatar
    Anmelden

    Stündliche Wetter Lubango

    Heute, 17 Juni, Montag

    Zeit Temperatur Niederschläge Wind Luftdruck Luftfeuchtigkeit
    00:00 +12°C° 0 mm 1 m/S 610 mmHg 49%
    01:00 +12°C° 0 mm 1 m/S 610 mmHg 48%
    02:00 +12°C° 0 mm 1 m/S 609 mmHg 48%
    03:00 +11°C° 0 mm 1 m/S 609 mmHg 49%
    04:00 +11°C° 0 mm 1 m/S 609 mmHg 49%
    05:00 +11°C° 0 mm 1 m/S 609 mmHg 49%
    06:00 +11°C° 0 mm 1 m/S 609 mmHg 49%
    07:00 +11°C° 0 mm 1 m/S 610 mmHg 49%
    08:00 +15°C° 0 mm 1 m/S 611 mmHg 42%
    09:00 +19°C° 0 mm 1 m/S 612 mmHg 35%
    10:00 +22°C° 0 mm 1 m/S 613 mmHg 28%
    11:00 +23°C° 0 mm 2 m/S 613 mmHg 26%
    12:00 +24°C° 0 mm 2 m/S 613 mmHg 24%
    13:00 +25°C° 0 mm 2 m/S 613 mmHg 22%
    14:00 +25°C° 0 mm 2 m/S 613 mmHg 22%
    15:00 +25°C° 0 mm 2 m/S 612 mmHg 22%
    16:00 +24°C° 0 mm 2 m/S 611 mmHg 23%
    17:00 +21°C° 0 mm 2 m/S 611 mmHg 27%
    18:00 +18°C° 0 mm 2 m/S 610 mmHg 31%
    19:00 +15°C° 0 mm 2 m/S 609 mmHg 34%
    20:00 +15°C° 0 mm 2 m/S 609 mmHg 35%
    21:00 +14°C° 0 mm 2 m/S 609 mmHg 36%
    22:00 +14°C° 0 mm 2 m/S 610 mmHg 36%
    23:00 +13°C° 0 mm 2 m/S 609 mmHg 38%

    Morgen, 18 Juni, Dienstag

    Zeit Temperatur Niederschläge Wind Luftdruck Luftfeuchtigkeit
    00:00 +13°C° 0 mm 2 m/S 609 mmHg 40%
    01:00 +13°C° 0 mm 2 m/S 609 mmHg 41%
    02:00 +12°C° 0 mm 2 m/S 609 mmHg 42%
    03:00 +12°C° 0 mm 2 m/S 609 mmHg 42%
    04:00 +12°C° 0 mm 2 m/S 609 mmHg 42%
    05:00 +12°C° 0 mm 2 m/S 609 mmHg 43%
    06:00 +12°C° 0 mm 2 m/S 609 mmHg 44%
    07:00 +11°C° 0 mm 3 m/S 610 mmHg 44%
    08:00 +14°C° 0 mm 3 m/S 611 mmHg 39%
    09:00 +18°C° 0 mm 4 m/S 612 mmHg 33%
    10:00 +21°C° 0 mm 4 m/S 613 mmHg 27%
    11:00 +22°C° 0 mm 4 m/S 613 mmHg 25%
    12:00 +25°C° 0 mm 3 m/S 613 mmHg 23%
    13:00 +26°C° 0 mm 3 m/S 613 mmHg 21%
    14:00 +26°C° 0 mm 2 m/S 612 mmHg 21%
    15:00 +25°C° 0 mm 2 m/S 612 mmHg 21%
    16:00 +25°C° 0 mm 2 m/S 611 mmHg 20%
    17:00 +21°C° 0 mm 2 m/S 611 mmHg 24%
    18:00 +19°C° 0 mm 2 m/S 610 mmHg 29%
    19:00 +16°C° 0 mm 2 m/S 609 mmHg 33%
    20:00 +15°C° 0 mm 2 m/S 609 mmHg 33%
    21:00 +15°C° 0 mm 2 m/S 609 mmHg 34%
    22:00 +14°C° 0 mm 2 m/S 609 mmHg 34%
    23:00 +14°C° 0 mm 2 m/S 609 mmHg 36%

    übermorgen, 19 Juni, Mittwoch

    Zeit Temperatur Niederschläge Wind Luftdruck Luftfeuchtigkeit
    00:00 +13°C° 0 mm 2 m/S 609 mmHg 37%
    01:00 +13°C° 0 mm 2 m/S 609 mmHg 39%
    02:00 +12°C° 0 mm 2 m/S 609 mmHg 41%
    03:00 +12°C° 0 mm 2 m/S 608 mmHg 43%
    04:00 +12°C° 0 mm 2 m/S 608 mmHg 46%
    05:00 +11°C° 0 mm 3 m/S 609 mmHg 47%
    06:00 +11°C° 0 mm 3 m/S 609 mmHg 48%
    07:00 +11°C° 0 mm 3 m/S 609 mmHg 50%
    08:00 +13°C° 0 mm 4 m/S 611 mmHg 43%
    09:00 +17°C° 0 mm 4 m/S 612 mmHg 36%
    10:00 +20°C° 0 mm 5 m/S 613 mmHg 30%
    11:00 +22°C° 0 mm 4 m/S 613 mmHg 27%
    12:00 +23°C° 0 mm 4 m/S 613 mmHg 25%
    13:00 +25°C° 0 mm 3 m/S 613 mmHg 22%
    14:00 +25°C° 0 mm 2 m/S 612 mmHg 21%
    15:00 +25°C° 0 mm 2 m/S 612 mmHg 21%
    16:00 +25°C° 0 mm 1 m/S 612 mmHg 20%
    17:00 +22°C° 0 mm 1 m/S 611 mmHg 24%
    18:00 +19°C° 0 mm 1 m/S 610 mmHg 28%
    19:00 +15°C° 0 mm 1 m/S 610 mmHg 32%
    20:00 +15°C° 0 mm 1 m/S 610 mmHg 32%
    21:00 +14°C° 0 mm 2 m/S 610 mmHg 32%
    22:00 +14°C° 0 mm 2 m/S 610 mmHg 32%
    23:00 +13°C° 0 mm 1 m/S 610 mmHg 34%

    20 Juni, Donnerstag

    Zeit Temperatur Niederschläge Wind Luftdruck Luftfeuchtigkeit
    00:00 +13°C° 0 mm 1 m/S 610 mmHg 35%
    01:00 +13°C° 0 mm 1 m/S 610 mmHg 37%
    02:00 +12°C° 0 mm 1 m/S 609 mmHg 38%
    03:00 +12°C° 0 mm 2 m/S 609 mmHg 40%
    04:00 +10°C° 0 mm 2 m/S 609 mmHg 41%
    05:00 +12°C° 0 mm 2 m/S 609 mmHg 43%
    06:00 +12°C° 0 mm 2 m/S 609 mmHg 44%
    07:00 +12°C° 0 mm 2 m/S 610 mmHg 46%
    08:00 +14°C° 0 mm 3 m/S 611 mmHg 40%
    09:00 +18°C° 0 mm 4 m/S 612 mmHg 34%
    10:00 +21°C° 0 mm 4 m/S 613 mmHg 28%
    11:00 +22°C° 0 mm 4 m/S 613 mmHg 25%
    12:00 +24°C° 0 mm 3 m/S 613 mmHg 23%
    13:00 +25°C° 0 mm 3 m/S 612 mmHg 20%
    14:00 +25°C° 0 mm 2 m/S 612 mmHg 20%
    15:00 +25°C° 0 mm 2 m/S 612 mmHg 19%
    16:00 +25°C° 0 mm 2 m/S 611 mmHg 19%
    17:00 +21°C° 0 mm 2 m/S 611 mmHg 23%
    18:00 +19°C° 0 mm 2 m/S 610 mmHg 26%
    19:00 +16°C° 0 mm 2 m/S 610 mmHg 30%
    20:00 +15°C° 0 mm 2 m/S 610 mmHg 31%
    21:00 +15°C° 0 mm 2 m/S 610 mmHg 31%
    22:00 +14°C° 0 mm 2 m/S 610 mmHg 32%
    23:00 +14°C° 0 mm 2 m/S 610 mmHg 33%

    21 Juni, Freitag

    Zeit Temperatur Niederschläge Wind Luftdruck Luftfeuchtigkeit
    00:00 +13°C° 0 mm 2 m/S 610 mmHg 34%
    01:00 +12°C° 0 mm 2 m/S 609 mmHg 36%
    02:00 +12°C° 0 mm 2 m/S 609 mmHg 37%
    03:00 +11°C° 0 mm 3 m/S 609 mmHg 38%
    04:00 +11°C° 0 mm 3 m/S 608 mmHg 39%
    05:00 +11°C° 0 mm 3 m/S 609 mmHg 41%
    06:00 +11°C° 0 mm 3 m/S 609 mmHg 42%
    07:00 +10°C° 0 mm 3 m/S 609 mmHg 43%
    08:00 +13°C° 0 mm 3 m/S 610 mmHg 38%
    09:00 +17°C° 0 mm 4 m/S 611 mmHg 33%
    10:00 +20°C° 0 mm 4 m/S 612 mmHg 27%
    11:00 +22°C° 0 mm 4 m/S 612 mmHg 25%
    12:00 +24°C° 0 mm 3 m/S 612 mmHg 23%
    13:00 +25°C° 0 mm 3 m/S 612 mmHg 20%
    14:00 +25°C° 0 mm 2 m/S 611 mmHg 19%
    15:00 +25°C° 0 mm 2 m/S 611 mmHg 18%
    16:00 +25°C° 0 mm 1 m/S 610 mmHg 18%
    17:00 +22°C° 0 mm 1 m/S 610 mmHg 21%
    18:00 +19°C° 0 mm 1 m/S 609 mmHg 24%
    19:00 +16°C° 0 mm 1 m/S 609 mmHg 27%
    20:00 +15°C° 0 mm 1 m/S 609 mmHg 28%
    21:00 +14°C° 0 mm 1 m/S 609 mmHg 29%
    22:00 +14°C° 0 mm 1 m/S 609 mmHg 31%
    23:00 +13°C° 0 mm 1 m/S 609 mmHg 32%

    22 Juni, Samstag

    Zeit Temperatur Niederschläge Wind Luftdruck Luftfeuchtigkeit
    00:00 +13°C° 0 mm 1 m/S 609 mmHg 33%
    01:00 +13°C° 0 mm 1 m/S 608 mmHg 34%
    02:00 +12°C° 0 mm 1 m/S 608 mmHg 35%
    03:00 +12°C° 0 mm 2 m/S 608 mmHg 37%
    04:00 +12°C° 0 mm 2 m/S 607 mmHg 38%
    05:00 +12°C° 0 mm 2 m/S 608 mmHg 38%
    06:00 +12°C° 0 mm 2 m/S 608 mmHg 39%
    07:00 +12°C° 0 mm 2 m/S 609 mmHg 40%
    08:00 +14°C° 0 mm 3 m/S 610 mmHg 34%
    09:00 +18°C° 0 mm 3 m/S 611 mmHg 29%
    10:00 +21°C° 0 mm 3 m/S 613 mmHg 23%
    11:00 +24°C° 0 mm 3 m/S 612 mmHg 21%
    12:00 +25°C° 0 mm 2 m/S 612 mmHg 20%
    13:00 +26°C° 0 mm 2 m/S 612 mmHg 18%
    14:00 +26°C° 0 mm 2 m/S 612 mmHg 18%
    15:00 +26°C° 0 mm 2 m/S 611 mmHg 18%
    16:00 +26°C° 0 mm 1 m/S 611 mmHg 18%
    17:00 +22°C° 0 mm 1 m/S 610 mmHg 24%
    18:00 +19°C° 0 mm 1 m/S 609 mmHg 30%
    19:00 +14°C° 0 mm 1 m/S 608 mmHg 37%
    20:00 +14°C° 0 mm 1 m/S 608 mmHg 37%
    21:00 +14°C° 0 mm 1 m/S 609 mmHg 37%
    22:00 +13°C° 0 mm 1 m/S 609 mmHg 37%
    23:00 +13°C° 0 mm 1 m/S 609 mmHg 36%
    Mehr zeigen